Location: Newark
(52.1031°N, 9.3600°E)
Time: 06:29:46
(UTC+00:00)

nSIGHT-1 - Pass Details

Date: 21 December 2019
Orbit: 315 x 317 km, 51.6° (Epoch: 19 January)

Event Time Altitude Azimuth Distance (km) Brightness Sun altitude
Exits shadow 06:12:34 16° 265° (W) 953 ? -10.8°
Maximum altitude 06:14:22 35° 203° (SSW) 534 ? -10.5°
Drops below altitude 10° 06:16:53 10° 135° (SE) 1,215 ? -10.2°
Sets 06:18:55 0° 126° (SE) 2,042 ? -9.9°
